TimeCST,TemperatureF,Dew PointF,Humidity,Sea Level PressureIn,VisibilityMPH,Wind Direction,Wind SpeedMPH,Gust SpeedMPH,PrecipitationIn,Events,Conditions,WindDirDegrees,DateUTC
12:15 AM,39.2,37.4,93,29.43,2.5,SE,19.6,25.3,N/A,,Overcast,140,2013-02-10 06:15:00
12:35 AM,38.8,37.4,95,29.40,2.5,SE,13.8,-,N/A,Rain,Light Rain,130,2013-02-10 06:35:00
12:55 AM,38.8,37.4,95,29.39,2.5,SE,19.6,-,N/A,,Overcast,130,2013-02-10 06:55:00
1:15 AM,38.8,37.4,95,29.41,3.0,South,3.5,-,N/A,Rain,Light Rain,190,2013-02-10 07:15:00
1:35 AM,39.0,37.4,94,29.39,3.0,SE,10.4,-,N/A,,Drizzle,140,2013-02-10 07:35:00
1:55 AM,38.8,37.4,95,29.36,3.0,SE,9.2,-,0.02,Rain,Rain,130,2013-02-10 07:55:00
2:15 AM,39.2,37.6,94,29.33,3.0,SE,17.3,20.7,0.01,,Light Drizzle,130,2013-02-10 08:15:00
2:35 AM,39.4,37.9,95,29.31,3.0,SE,18.4,-,0.01,,Overcast,130,2013-02-10 08:35:00
2:55 AM,39.7,38.5,95,29.28,0.8,SE,16.1,21.9,0.01,,Overcast,130,2013-02-10 08:55:00
3:15 AM,40.1,38.8,95,29.25,0.5,SE,18.4,-,N/A,Fog,Fog,130,2013-02-10 09:15:00
3:55 AM,41.5,40.3,95,29.21,7.0,SE,17.3,-,N/A,,Overcast,140,2013-02-10 09:55:00
4:15 AM,41.5,40.3,95,29.20,7.0,SSE,11.5,-,N/A,,Overcast,160,2013-02-10 10:15:00
4:35 AM,42.3,40.8,95,29.19,10.0,South,18.4,26.5,N/A,,Overcast,190,2013-02-10 10:35:00
4:55 AM,40.8,39.0,93,29.18,5.0,WSW,12.7,17.3,N/A,,Overcast,240,2013-02-10 10:55:00
5:15 AM,39.2,37.4,93,29.18,10.0,WSW,15.0,19.6,N/A,,Overcast,250,2013-02-10 11:15:00
5:35 AM,37.4,35.6,93,29.18,7.0,SW,11.5,-,N/A,,Overcast,230,2013-02-10 11:35:00
5:55 AM,36.1,34.3,93,29.18,7.0,SW,12.7,-,N/A,,Overcast,230,2013-02-10 11:55:00
6:15 AM,35.6,33.8,93,29.19,10.0,SW,11.5,-,N/A,,Overcast,230,2013-02-10 12:15:00
6:35 AM,35.6,33.8,93,29.20,10.0,SW,11.5,-,N/A,,Overcast,230,2013-02-10 12:35:00
6:55 AM,36.7,35.1,94,29.22,10.0,WNW,10.4,20.7,N/A,,Overcast,290,2013-02-10 12:55:00
7:15 AM,35.4,33.1,91,29.23,10.0,WNW,17.3,25.3,N/A,,Overcast,300,2013-02-10 13:15:00
7:35 AM,33.4,31.1,91,29.25,10.0,NW,20.7,29.9,N/A,,Overcast,310,2013-02-10 13:35:00
7:55 AM,32.5,29.7,89,29.28,10.0,NW,23.0,29.9,N/A,,Overcast,310,2013-02-10 13:55:00
8:15 AM,32.4,28.9,87,29.29,10.0,NW,21.9,31.1,N/A,,Overcast,310,2013-02-10 14:15:00
8:35 AM,32.0,27.5,83,29.31,10.0,NW,23.0,36.8,N/A,,Overcast,310,2013-02-10 14:35:00
8:55 AM,31.5,26.8,83,29.33,10.0,NW,27.6,38.0,N/A,,Overcast,310,2013-02-10 14:55:00
9:15 AM,31.5,26.2,81,29.35,10.0,NW,25.3,38.0,N/A,,Overcast,310,2013-02-10 15:15:00
9:35 AM,31.5,25.9,80,29.36,10.0,NW,25.3,42.6,N/A,,Overcast,310,2013-02-10 15:35:00
9:55 AM,31.6,26.1,80,29.38,10.0,NW,28.8,40.3,N/A,,Overcast,310,2013-02-10 15:55:00
10:15 AM,32.0,26.1,79,29.39,10.0,NW,27.6,38.0,N/A,,Overcast,310,2013-02-10 16:15:00
10:35 AM,31.8,25.7,78,29.40,10.0,NW,25.3,38.0,N/A,,Overcast,310,2013-02-10 16:35:00
10:55 AM,32.0,25.9,78,29.41,10.0,NW,26.5,43.7,N/A,,Overcast,310,2013-02-10 16:55:00
11:15 AM,32.0,26.4,80,29.41,10.0,NW,29.9,40.3,N/A,,Overcast,310,2013-02-10 17:15:00
11:35 AM,32.4,25.9,77,29.43,10.0,NW,32.2,42.6,N/A,,Overcast,310,2013-02-10 17:35:00
11:55 AM,32.9,26.2,76,29.44,10.0,NW,33.4,46.0,N/A,,Overcast,320,2013-02-10 17:55:00
12:15 PM,33.8,26.1,73,29.45,10.0,NW,33.4,46.0,N/A,,Overcast,320,2013-02-10 18:15:00
12:35 PM,33.8,25.9,73,29.47,10.0,NW,32.2,48.3,N/A,,Overcast,310,2013-02-10 18:35:00
12:55 PM,33.3,25.7,74,29.49,10.0,NW,27.6,41.4,N/A,,Overcast,310,2013-02-10 18:55:00
1:15 PM,32.9,25.0,73,29.51,10.0,NW,27.6,46.0,N/A,,Overcast,310,2013-02-10 19:15:00
1:35 PM,32.9,24.4,71,29.53,10.0,NW,31.1,41.4,N/A,,Overcast,310,2013-02-10 19:35:00
1:55 PM,33.1,24.8,72,29.54,10.0,NW,27.6,44.9,N/A,,Overcast,320,2013-02-10 19:55:00
2:15 PM,33.4,25.0,71,29.56,10.0,NW,31.1,39.1,N/A,,Overcast,320,2013-02-10 20:15:00
2:35 PM,34.2,24.4,68,29.58,10.0,NW,25.3,39.1,N/A,,Overcast,320,2013-02-10 20:35:00
2:55 PM,34.3,23.9,66,29.60,10.0,NW,27.6,44.9,N/A,,Overcast,320,2013-02-10 20:55:00
3:15 PM,35.1,24.8,66,29.61,10.0,NW,31.1,40.3,N/A,,Overcast,320,2013-02-10 21:15:00
3:35 PM,35.6,25.3,66,29.63,10.0,NW,28.8,41.4,N/A,,Overcast,310,2013-02-10 21:35:00
3:55 PM,36.0,25.7,66,29.65,10.0,NW,26.5,40.3,N/A,,Overcast,310,2013-02-10 21:55:00
4:15 PM,36.0,26.4,68,29.67,10.0,NW,26.5,36.8,N/A,,Overcast,310,2013-02-10 22:15:00
4:35 PM,36.9,25.7,64,29.68,10.0,NW,24.2,43.7,N/A,,Overcast,310,2013-02-10 22:35:00
4:55 PM,36.5,25.5,64,29.71,10.0,NW,26.5,39.1,N/A,,Overcast,310,2013-02-10 22:55:00
5:15 PM,36.3,25.5,65,29.72,10.0,WNW,24.2,38.0,N/A,,Overcast,300,2013-02-10 23:15:00
5:35 PM,36.1,25.7,66,29.74,10.0,NW,26.5,32.2,N/A,,Overcast,310,2013-02-10 23:35:00
5:55 PM,36.1,25.3,65,29.75,10.0,WNW,28.8,36.8,N/A,,Overcast,300,2013-02-10 23:55:00
6:15 PM,35.2,25.7,68,29.76,10.0,WNW,24.2,38.0,N/A,,Overcast,300,2013-02-11 00:15:00
6:35 PM,34.9,25.0,67,29.79,10.0,WNW,24.2,36.8,N/A,,Overcast,300,2013-02-11 00:35:00
6:55 PM,34.9,24.8,67,29.81,10.0,NW,27.6,42.6,N/A,,Overcast,310,2013-02-11 00:55:00
7:15 PM,33.8,23.2,65,29.82,10.0,NW,27.6,46.0,N/A,,Mostly Cloudy,310,2013-02-11 01:15:00
7:35 PM,33.1,23.5,68,29.82,10.0,NW,23.0,31.1,N/A,,Scattered Clouds,320,2013-02-11 01:35:00
7:55 PM,32.9,23.9,69,29.84,10.0,NW,20.7,31.1,N/A,,Scattered Clouds,310,2013-02-11 01:55:00
8:15 PM,32.0,23.0,69,29.85,10.0,NW,24.2,31.1,N/A,,Clear,310,2013-02-11 02:15:00
8:35 PM,32.0,22.5,68,29.86,10.0,NW,23.0,29.9,N/A,,Clear,320,2013-02-11 02:35:00
8:55 PM,32.0,22.1,67,29.87,10.0,NW,21.9,29.9,N/A,,Clear,320,2013-02-11 02:55:00
9:15 PM,31.3,21.9,68,29.89,10.0,NW,19.6,28.8,N/A,,Clear,310,2013-02-11 03:15:00
9:35 PM,31.5,21.2,66,29.90,10.0,NW,19.6,27.6,N/A,,Clear,320,2013-02-11 03:35:00
9:55 PM,31.5,21.0,65,29.91,10.0,NW,18.4,27.6,N/A,,Clear,320,2013-02-11 03:55:00
10:15 PM,31.1,21.2,67,29.91,10.0,NW,18.4,25.3,N/A,,Clear,320,2013-02-11 04:15:00
10:35 PM,30.9,21.2,67,29.93,10.0,NW,17.3,25.3,N/A,,Scattered Clouds,310,2013-02-11 04:35:00
10:55 PM,30.7,21.2,68,29.93,10.0,NW,16.1,21.9,N/A,,Clear,310,2013-02-11 04:55:00
11:15 PM,30.0,21.0,69,29.94,10.0,NW,17.3,24.2,N/A,,Clear,310,2013-02-11 05:15:00
11:35 PM,29.7,21.2,71,29.94,10.0,WNW,15.0,-,N/A,,Clear,300,2013-02-11 05:35:00
11:55 PM,29.3,21.0,71,29.96,10.0,WNW,13.8,18.4,N/A,,Clear,300,2013-02-11 05:55:00